User: anonymous   Login
Location: Bismarck
(46.7731°N, 100.8200°W)
Time: 18:35:29
(UTC-05:00)
Language:

Cosmos 2219 Rocket - Orbit

View from above orbital plane
View from above orbital plane
View from above satellite
View from above satellite

Ground track
Ground track

The orbit data is extracted from the following two-line orbital elements,

1 22220U 92076B   17112.76004160 -.00000215 +00000-0 -84136-4 0  9994
2 22220 070.9995 175.9225 0013142 347.2540 145.4330 14.16412448262922
Epoch (UTC): 22 April 2017 18:14:27
Eccentricity: 0.0013142
inclination: 70.9995°
perigee height: 828 km
apogee height: 847 km
right ascension of ascending node: 175.9225°
argument of perigee: 347.2540°
revolutions per day: 14.16412448
mean anomaly at epoch: 145.4330°
orbit number at epoch: 26292

The dashed part of the orbit path shows where the satellite is in the earth's shadow,  

DLR